Weather History for KMCE - March, 2013

Change the Weather History Date:

Tuesday, March 26, 2013

  Actual Average Record
Temperature  
Mean Temperature 62 °F 55 °F  
Max Temperature 75 °F 67 °F 85 °F (2015)
Min Temperature 49 °F 42 °F 37 °F (2006)
Degree Days  
Heating Degree Days 3    
Month to date heating degree days 175  
Since 1 July heating degree days 2087  
Cooling Degree Days 0    
Month to date cooling degree days 0  
Year to date cooling degree days 0  
Growing Degree Days 12 (Base 50)    
Moisture  
Dew Point 44 °F    
Average Humidity 54    
Maximum Humidity 74    
Minimum Humidity 33    
Precipitation  
Precipitation T in 0.06 in 0.60 in (2011)
Month to date precipitation 0.27 1.80  
Year to date precipitation 1.69 6.75  
Since 1 July precipitation 6.52  
Snow  
Snow 0.00 in - - ()
Month to date snowfall 0.0  
Since 1 July snowfall 0.0  
Snow Depth 0.00 in    
Sea Level Pressure  
Sea Level Pressure 29.93 in    
Wind  
Wind Speed 7 mph (NNW)    
Max Wind Speed 13 mph    
Max Gust Speed 24 mph    
Visibility 10 miles    
Events      
T = Trace of Precipitation, MM = Missing Value Source: NWS Daily Summary

Daily Weather History Graph

Daily Weather History Graph

Search for Another Location

Airport or City:

Trip Planner

Search our weather history database for the weather conditions in past years. The results will help you decide how hot, cold, wet, or windy it might be!

Date:

Astronomy

Mar. 26, 2013 Rise Set
Actual Time 6:56 AM PDT 7:19 PM PDT
Civil Twilight 6:29 AM PDT 7:45 PM PDT
Nautical Twilight 5:59 AM PDT 8:16 PM PDT
Astronomical Twilight 5:28 AM PDT 8:47 PM PDT
Moon 7:01 PM PDT (3/26) 6:15 AM PDT (3/26)
Length of Visible Light 13h 15m
Length of Day
12h 23m
Full, 100% of the Moon is Illuminated
Mar 26
Full
Mar 27
Full
Apr 2
Last Quarter
Apr 10
New
Apr 18
First Quarter

Hourly Weather History & Observations

Time (PDT) Temp. Dew Point Humidity Pressure Visibility Wind Dir Wind Speed Gust Speed Precip Events Conditions
12:53 AM 52.0 °F 43.0 °F 71% 29.93 in 10.0 mi NNW 4.6 mph - N/A   Clear
1:53 AM 50.0 °F 43.0 °F 77% 29.95 in 10.0 mi NW 8.1 mph - N/A   Clear
2:53 AM 51.1 °F 43.0 °F 74% 29.94 in 10.0 mi NNW 9.2 mph - N/A   Clear
3:53 AM 50.0 °F 42.1 °F 74% 29.93 in 10.0 mi NNW 8.1 mph - N/A   Partly Cloudy
4:53 AM 50.0 °F 42.1 °F 74% 29.94 in 10.0 mi NNW 8.1 mph - N/A   Clear
5:53 AM 51.1 °F 42.1 °F 71% 29.93 in 10.0 mi NNW 9.2 mph - N/A   Overcast
6:53 AM 50.0 °F 43.0 °F 77% 29.94 in 10.0 mi WNW 4.6 mph - 0.00 in   Overcast
7:53 AM 51.1 °F 43.0 °F 74% 29.95 in 10.0 mi NW 6.9 mph - N/A   Overcast
8:53 AM 54.0 °F 43.0 °F 66% 29.96 in 10.0 mi NNW 9.2 mph 20.7 mph N/A   Overcast
9:53 AM 59.0 °F 41.0 °F 51% 29.98 in 10.0 mi NNW 10.4 mph - N/A   Mostly Cloudy
11:53 AM 64.0 °F 41.0 °F 43% 29.98 in 10.0 mi North 8.1 mph - N/A   Mostly Cloudy
12:53 PM 64.9 °F 43.0 °F 45% 29.97 in 10.0 mi NNW 9.2 mph - N/A   Mostly Cloudy
1:53 PM 70.0 °F 45.0 °F 41% 29.96 in 10.0 mi NW 5.8 mph - N/A   Partly Cloudy
2:53 PM 71.1 °F 45.0 °F 39% 29.93 in 10.0 mi NW 6.9 mph - N/A   Clear
3:53 PM 73.0 °F 45.0 °F 37% 29.91 in 10.0 mi Variable 5.8 mph - N/A   Scattered Clouds
4:53 PM 73.9 °F 44.1 °F 34% 29.89 in 10.0 mi NW 6.9 mph - N/A   Clear
5:53 PM 73.0 °F 43.0 °F 34% 29.88 in 10.0 mi NW 8.1 mph - N/A   Clear
6:53 PM 70.0 °F 45.0 °F 41% 29.88 in 10.0 mi NNW 8.1 mph - N/A   Clear
7:53 PM 63.0 °F 46.0 °F 54% 29.90 in 10.0 mi NNW 5.8 mph - N/A   Clear
8:53 PM 60.1 °F 46.0 °F 60% 29.91 in 10.0 mi NNW 4.6 mph - N/A   Clear
9:53 PM 60.1 °F 46.0 °F 60% 29.93 in 10.0 mi Calm Calm - N/A   Clear
10:53 PM 55.0 °F 46.0 °F 72% 29.94 in 10.0 mi NW 5.8 mph - N/A   Clear
11:53 PM 57.9 °F 46.0 °F 65% 29.93 in 10.0 mi NNW 9.2 mph - N/A   Clear